| time (UTC) | temp F | wind direction | speed knots | gust knots | rain 1hr in | rain 24hr in | rain mn in | humidity % | barometer mb |
| 20260902213030 | 63 | 181 | 4.3 | 10.4 | 0.00 | 0.00 | 0.01 | 86 | 1018.1 |
| 20260902212029 | 63 | 193 | 3.5 | 7.8 | 0.00 | 0.00 | 0.01 | 86 | 1018.1 |
| 20260902211030 | 63 | 195 | 2.6 | 7.0 | 0.00 | 0.00 | 0.01 | 85 | 1017.9 |
| 20260902210030 | 63 | 188 | 2.6 | 7.0 | 0.00 | 0.00 | 0.01 | 85 | 1018.0 |
| 20260902205030 | 64 | 143 | 0.9 | 6.1 | 0.00 | 0.00 | 0.01 | 84 | 1017.9 |
| 20260902204030 | 64 | 145 | 1.7 | 4.3 | 0.00 | 0.00 | 0.01 | 84 | 1018.1 |
| 20260902203030 | 64 | 142 | 1.7 | 5.2 | 0.00 | 0.00 | 0.01 | 83 | 1018.1 |
| 20260902202029 | 64 | 159 | 0.9 | 4.3 | 0.00 | 0.00 | 0.01 | 82 | 1018.3 |
| 20260902201030 | 64 | 155 | 0.9 | 3.5 | 0.00 | 0.00 | 0.00 | 81 | 1018.4 |
| 20260902200030 | 64 | 184 | 1.7 | 4.3 | 0.00 | 0.00 | 0.00 | 81 | 1018.4 |
| 20260902195030 | 64 | 199 | 4.3 | 8.7 | 0.00 | 0.00 | 0.00 | 80 | 1018.5 |
| 20260902194030 | 64 | 214 | 4.3 | 8.7 | 0.00 | 0.00 | 0.00 | 80 | 1018.6 |
| 20260902193030 | 64 | 230 | 7.8 | 12.2 | 0.00 | 0.00 | 0.00 | 79 | 1018.5 |
| 20260902192029 | 64 | 239 | 12.2 | 23.5 | 0.00 | 0.00 | 0.00 | 78 | 1018.6 |
| 20260902191030 | 64 | 225 | 19.1 | 26.9 | 0.00 | 0.00 | 0.00 | 82 | 1018.6 |
| 20260902190030 | 66 | 193 | 5.2 | 10.4 | 0.00 | 0.00 | 0.00 | 77 | 1018.8 |
| 20260902185030 | 66 | 200 | 3.5 | 7.8 | 0.00 | 0.00 | 0.00 | 76 | 1018.8 |
| 20260902184030 | 66 | 200 | 4.3 | 8.7 | 0.00 | 0.00 | 0.00 | 76 | 1018.6 |
| 20260902183030 | 66 | 189 | 3.5 | 7.0 | 0.00 | 0.00 | 0.00 | 76 | 1018.6 |
| 20260902182029 | 66 | 204 | 4.3 | 7.0 | 0.00 | 0.00 | 0.00 | 76 | 1018.6 |
| 20260902181030 | 66 | 204 | 4.3 | 8.7 | 0.00 | 0.00 | 0.00 | 76 | 1018.6 |
| 20260902180030 | 66 | 201 | 5.2 | 10.4 | 0.00 | 0.00 | 0.00 | 75 | 1018.6 |
| 20260902175030 | 67 | 209 | 6.1 | 12.2 | 0.00 | 0.00 | 0.00 | 75 | 1018.7 |
| 20260902174030 | 67 | 209 | 6.1 | 11.3 | 0.00 | 0.00 | 0.00 | 76 | 1018.6 |
| 20260902173030 | 67 | 213 | 6.1 | 10.4 | 0.00 | 0.00 | 0.00 | 76 | 1018.7 |
| 20260902172029 | 67 | 219 | 7.0 | 11.3 | 0.00 | 0.00 | 0.00 | 76 | 1018.7 |
| 20260902171030 | 67 | 218 | 7.0 | 12.2 | 0.00 | 0.00 | 0.00 | 76 | 1018.7 |
| 20260902170030 | 67 | 227 | 9.6 | 13.9 | 0.00 | 0.00 | 0.00 | 76 | 1018.7 |
| 20260902165030 | 67 | 218 | 8.7 | 13.0 | 0.00 | 0.00 | 0.00 | 77 | 1018.6 |
| 20260902164030 | 67 | 228 | 8.7 | 13.0 | 0.00 | 0.00 | 0.00 | 77 | 1018.7 |
| 20260902163030 | 67 | 236 | 9.6 | 13.0 | 0.00 | 0.00 | 0.00 | 76 | 1018.8 |
| 20260902162030 | 67 | 236 | 10.4 | 13.9 | 0.00 | 0.00 | 0.00 | 76 | 1018.7 |
| 20260902161030 | 67 | 239 | 10.4 | 13.0 | 0.00 | 0.00 | 0.00 | 76 | 1018.8 |
| 20260902160030 | 68 | 236 | 10.4 | 13.9 | 0.00 | 0.00 | 0.00 | 75 | 1018.8 |
| 20260902155030 | 68 | 235 | 10.4 | 13.9 | 0.00 | 0.00 | 0.00 | 73 | 1018.9 |
| 20260902154030 | 68 | 244 | 11.3 | 14.8 | 0.00 | 0.00 | 0.00 | 72 | 1018.9 |
| 20260902153029 | 68 | 230 | 12.2 | 15.6 | 0.00 | 0.00 | 0.00 | 72 | 1019.0 |
| 20260902152030 | 68 | 239 | 11.3 | 15.6 | 0.00 | 0.00 | 0.00 | 72 | 1019.0 |
| 20260902151030 | 68 | 247 | 12.2 | 16.5 | 0.00 | 0.00 | 0.00 | 73 | 1019.0 |
| 20260902150030 | 68 | 234 | 13.0 | 18.2 | 0.00 | 0.00 | 0.00 | 72 | 1019.1 |
| 20260902145030 | 69 | 263 | 13.0 | 15.6 | 0.00 | 0.00 | 0.00 | 72 | 1019.3 |
| 20260902144029 | 69 | 239 | 9.6 | 14.8 | 0.00 | 0.00 | 0.00 | 73 | 1019.3 |
| 20260902143030 | 68 | 225 | 8.7 | 12.2 | 0.00 | 0.00 | 0.00 | 74 | 1019.2 |
| 20260902142030 | 68 | 250 | 9.6 | 13.0 | 0.00 | 0.00 | 0.00 | 74 | 1019.2 |
| 20260902141030 | 69 | 232 | 7.8 | 11.3 | 0.00 | 0.00 | 0.00 | 74 | 1019.2 |
| 20260902140030 | 69 | 253 | 10.4 | 13.0 | 0.00 | 0.00 | 0.00 | 72 | 1019.2 |
| 20260902135030 | 69 | 240 | 11.3 | 14.8 | 0.00 | 0.00 | 0.00 | 71 | 1019.1 |
| 20260902134030 | 69 | 247 | 11.3 | 14.8 | 0.00 | 0.00 | 0.00 | 72 | 1019.1 |
| 20260902133030 | 69 | 243 | 10.4 | 13.9 | 0.00 | 0.00 | 0.00 | 71 | 1019.1 |
| 20260902132030 | 69 | 257 | 8.7 | 11.3 | 0.00 | 0.00 | 0.00 | 75 | 1019.2 |
| 20260902131030 | 68 | 252 | 9.6 | 12.2 | 0.00 | 0.00 | 0.00 | 73 | 1019.1 |
| 20260902130030 | 68 | 254 | 11.3 | 13.9 | 0.00 | 0.00 | 0.00 | 73 | 1019.3 |
| 20260902125030 | 68 | 241 | 10.4 | 13.9 | 0.00 | 0.00 | 0.00 | 73 | 1019.3 |
| 20260902124030 | 68 | 233 | 10.4 | 13.9 | 0.00 | 0.00 | 0.00 | 73 | 1019.2 |
| 20260902123030 | 68 | 243 | 8.7 | 11.3 | 0.00 | 0.00 | 0.00 | 75 | 1019.3 |
| 20260902122029 | 67 | 246 | 9.6 | 12.2 | 0.00 | 0.00 | 0.00 | 75 | 1019.3 |
| 20260902121029 | 67 | 246 | 10.4 | 13.0 | 0.00 | 0.00 | 0.00 | 75 | 1019.4 |
| 20260902120030 | 67 | 240 | 10.4 | 13.0 | 0.00 | 0.00 | 0.00 | 76 | 1019.3 |
| 20260902115030 | 67 | 248 | 12.2 | 15.6 | 0.00 | 0.00 | 0.00 | 76 | 1019.5 |
| 20260902114030 | 67 | 259 | 13.0 | 17.4 | 0.00 | 0.00 | 0.00 | 75 | 1019.6 |
| 20260902113032 | 67 | 233 | 12.2 | 17.4 | 0.00 | 0.00 | 0.00 | 75 | 1019.5 |
| 20260902112030 | 67 | 233 | 10.4 | 15.6 | 0.00 | 0.00 | 0.00 | 75 | 1019.5 |
| 20260902111029 | 67 | 240 | 13.0 | 19.1 | 0.00 | 0.00 | 0.00 | 75 | 1019.4 |
| 20260902110030 | 67 | 247 | 13.9 | 18.2 | 0.00 | 0.00 | 0.00 | 76 | 1019.6 |
| 20260902105030 | 67 | 250 | 13.0 | 19.1 | 0.00 | 0.00 | 0.00 | 75 | 1019.3 |
| 20260902104030 | 67 | 228 | 10.4 | 15.6 | 0.00 | 0.00 | 0.00 | 78 | 1019.3 |
| 20260902103030 | 67 | 226 | 11.3 | 15.6 | 0.00 | 0.00 | 0.00 | 78 | 1019.4 |
| 20260902102030 | 67 | 230 | 10.4 | 14.8 | 0.00 | 0.00 | 0.00 | 77 | 1019.4 |
| 20260902101030 | 68 | 222 | 10.4 | 14.8 | 0.00 | 0.00 | 0.00 | 77 | 1019.3 |
| 20260902100030 | 67 | 228 | 9.6 | 14.8 | 0.00 | 0.00 | 0.00 | 77 | 1019.2 |
| 20260902095029 | 67 | 218 | 9.6 | 15.6 | 0.00 | 0.00 | 0.00 | 80 | 1019.2 |
| 20260902094030 | 66 | 234 | 8.7 | 13.9 | 0.00 | 0.00 | 0.00 | 82 | 1019.1 |
| 20260902093030 | 66 | 228 | 8.7 | 13.9 | 0.00 | 0.00 | 0.00 | 83 | 1019.2 |
| 20260902092029 | 66 | 219 | 7.0 | 11.3 | 0.00 | 0.00 | 0.00 | 84 | 1019.1 |
| 20260902091031 | 65 | 209 | 5.2 | 8.7 | 0.00 | 0.00 | 0.00 | 85 | 1019.1 |
| 20260902090030 | 65 | 191 | 4.3 | 10.4 | 0.00 | 0.00 | 0.00 | 86 | 1019.0 |
| 20260902085030 | 64 | 199 | 5.2 | 9.6 | 0.00 | 0.00 | 0.00 | 87 | 1019.1 |
| 20260902084030 | 64 | 194 | 5.2 | 10.4 | 0.00 | 0.00 | 0.00 | 87 | 1019.0 |
| 20260902083030 | 63 | 205 | 6.1 | 12.2 | 0.00 | 0.00 | 0.00 | 87 | 1018.9 |
| 20260902082030 | 63 | 199 | 6.1 | 12.2 | 0.00 | 0.00 | 0.00 | 88 | 1018.9 |
| 20260902081030 | 62 | 183 | 5.2 | 10.4 | 0.00 | 0.00 | 0.00 | 89 | 1018.9 |
| 20260902080030 | 62 | 196 | 6.1 | 10.4 | 0.00 | 0.00 | 0.00 | 89 | 1018.8 |
| 20260902075030 | 61 | 202 | 3.5 | 9.6 | 0.00 | 0.00 | 0.00 | 90 | 1018.8 |
| 20260902074029 | 61 | 188 | 3.5 | 8.7 | 0.00 | 0.00 | 0.00 | 90 | 1018.7 |
| 20260902073030 | 60 | 169 | 3.5 | 10.4 | 0.00 | 0.00 | 0.00 | 90 | 1018.5 |
| 20260902072030 | 60 | 186 | 3.5 | 8.7 | 0.00 | 0.00 | 0.00 | 90 | 1018.5 |
| 20260902071029 | 59 | 184 | 1.7 | 7.0 | 0.00 | 0.00 | 0.00 | 90 | 1018.5 |
| 20260902070030 | 59 | 203 | 2.6 | 7.0 | 0.00 | 0.00 | 0.00 | 90 | 1018.4 |
| 20260902065030 | 59 | 180 | 2.6 | 7.0 | 0.00 | 0.00 | 0.00 | 90 | 1018.5 |
| 20260902064030 | 59 | 189 | 1.7 | 7.0 | 0.00 | 0.00 | 0.00 | 90 | 1018.5 |
| 20260902063030 | 58 | 164 | 1.7 | 5.2 | 0.00 | 0.00 | 0.00 | 89 | 1018.6 |
| 20260902062030 | 58 | 155 | 1.7 | 4.3 | 0.00 | 0.00 | 0.00 | 89 | 1018.5 |
| 20260902060030 | 58 | 143 | 1.7 | 4.3 | 0.00 | 0.00 | 0.00 | 89 | 1018.4 |
| 20260902055030 | 58 | 129 | 1.7 | 3.5 | 0.00 | 0.00 | 0.00 | 89 | 1018.4 |
| 20260902054029 | 58 | 139 | 1.7 | 4.3 | 0.00 | 0.00 | 0.00 | 89 | 1018.4 |
| 20260902053033 | 58 | 126 | 1.7 | 3.5 | 0.00 | 0.00 | 0.00 | 88 | 1018.5 |
| 20260902052030 | 58 | 127 | 1.7 | 4.3 | 0.00 | 0.00 | 0.00 | 88 | 1018.4 |
| 20260902051030 | 58 | 136 | 1.7 | 5.2 | 0.00 | 0.00 | 0.00 | 88 | 1018.4 |
| 20260902050030 | 58 | 121 | 1.7 | 3.5 | 0.00 | 0.00 | 0.00 | 88 | 1018.3 |
| 20260902045030 | 58 | 119 | 1.7 | 5.2 | 0.00 | 0.00 | 0.00 | 87 | 1018.3 |
| 20260902044030 | 58 | 128 | 1.7 | 6.1 | 0.00 | 0.00 | 0.00 | 87 | 1018.3 |
| 20260902043029 | 58 | 116 | 1.7 | 5.2 | 0.00 | 0.00 | 0.00 | 87 | 1018.3 |
| 20260902042030 | 58 | 118 | 1.7 | 7.0 | 0.00 | 0.00 | 0.00 | 87 | 1018.3 |
| 20260902041030 | 58 | 118 | 1.7 | 7.0 | 0.00 | 0.00 | 0.00 | 86 | 1018.3 |
| 20260902040030 | 58 | 132 | 1.7 | 5.2 | 0.00 | 0.00 | 0.00 | 86 | 1018.4 |
| 20260902035030 | 58 | 136 | 1.7 | 5.2 | 0.00 | 0.00 | 0.00 | 86 | 1018.5 |
| 20260902034030 | 58 | 111 | 1.7 | 6.1 | 0.00 | 0.00 | 0.00 | 86 | 1018.4 |
| 20260902033030 | 58 | 100 | 2.6 | 6.1 | 0.00 | 0.00 | 0.00 | 85 | 1018.6 |
| 20260902032030 | 59 | 118 | 1.7 | 6.1 | 0.00 | 0.00 | 0.00 | 85 | 1018.6 |
| 20260902031030 | 59 | 104 | 1.7 | 6.1 | 0.00 | 0.00 | 0.00 | 85 | 1018.6 |
| 20260902030030 | 59 | 123 | 1.7 | 6.1 | 0.00 | 0.00 | 0.00 | 85 | 1018.7 |
| 20260902025030 | 59 | 113 | 2.6 | 6.1 | 0.00 | 0.00 | 0.00 | 84 | 1018.7 |
| 20260902024030 | 59 | 113 | 1.7 | 6.1 | 0.00 | 0.00 | 0.00 | 84 | 1018.7 |
| 20260902023029 | 59 | 116 | 1.7 | 6.1 | 0.00 | 0.00 | 0.00 | 84 | 1018.8 |
| 20260902022030 | 59 | 110 | 1.7 | 5.2 | 0.00 | 0.00 | 0.00 | 84 | 1018.9 |
| 20260902021030 | 59 | 132 | 1.7 | 5.2 | 0.00 | 0.00 | 0.00 | 84 | 1018.9 |
| 20260902020030 | 59 | 139 | 1.7 | 4.3 | 0.00 | 0.00 | 0.00 | 84 | 1019.1 |
| 20260902015030 | 58 | 126 | 1.7 | 4.3 | 0.00 | 0.00 | 0.00 | 84 | 1019.1 |
| 20260902014030 | 58 | 124 | 1.7 | 3.5 | 0.00 | 0.00 | 0.00 | 84 | 1019.2 |
| 20260902013030 | 58 | 128 | 1.7 | 4.3 | 0.00 | 0.00 | 0.00 | 84 | 1019.3 |
| 20260902012029 | 58 | 134 | 1.7 | 4.3 | 0.00 | 0.00 | 0.00 | 83 | 1019.1 |
| 20260902011030 | 59 | 136 | 1.7 | 6.1 | 0.00 | 0.00 | 0.00 | 83 | 1019.1 |
| 20260902010029 | 59 | 129 | 1.7 | 4.3 | 0.00 | 0.00 | 0.00 | 83 | 1019.1 |
| 20260902005031 | 59 | 138 | 1.7 | 4.3 | 0.00 | 0.00 | 0.00 | 82 | 1019.1 |
| 20260902004030 | 59 | 144 | 1.7 | 4.3 | 0.00 | 0.00 | 0.00 | 82 | 1019.4 |
| 20260902003030 | 59 | 132 | 1.7 | 5.2 | 0.00 | 0.00 | 0.00 | 82 | 1019.2 |
| 20260902002030 | 60 | 126 | 0.9 | 3.5 | 0.00 | 0.00 | 0.00 | 82 | 1019.3 |
| 20260902001029 | 60 | 175 | 0.9 | 4.3 | 0.00 | 0.00 | 0.00 | 81 | 1019.4 |
| 20260902000030 | 60 | 171 | 0.9 | 3.5 | 0.00 | 0.00 | 0.00 | 81 | 1019.4 |
| 20260901235030 | 60 | 181 | 1.7 | 4.3 | 0.00 | 0.00 | 0.00 | 82 | 1019.6 |
| 20260901234030 | 60 | 186 | 1.7 | 5.2 | 0.00 | 0.00 | 0.00 | 82 | 1019.6 |
| 20260901233032 | 60 | 182 | 2.6 | 5.2 | 0.00 | 0.00 | 0.00 | 82 | 1019.7 |
| 20260901232029 | 60 | 179 | 1.7 | 3.5 | 0.00 | 0.00 | 0.00 | 81 | 1019.7 |
| 20260901231030 | 60 | 186 | 1.7 | 3.5 | 0.00 | 0.00 | 0.00 | 81 | 1019.7 |
| 20260901230030 | 60 | 185 | 1.7 | 4.3 | 0.00 | 0.00 | 0.00 | 81 | 1019.7 |
| 20260901225030 | 60 | 179 | 0.9 | 1.7 | 0.00 | 0.00 | 0.00 | 80 | 1019.7 |
| 20260901224030 | 60 | 166 | 0.9 | 3.5 | 0.00 | 0.00 | 0.00 | 80 | 1019.7 |
| 20260901223029 | 60 | 154 | 0.9 | 2.6 | 0.00 | 0.00 | 0.00 | 79 | 1019.7 |
| 20260901222030 | 61 | 172 | 0.9 | 2.6 | 0.00 | 0.00 | 0.00 | 79 | 1019.8 |
| 20260901221030 | 61 | 183 | 0.9 | 1.7 | 0.00 | 0.00 | 0.00 | 78 | 1019.7 |
| 20260901220030 | 61 | 169 | 0.9 | 2.6 | 0.00 | 0.00 | 0.00 | 78 | 1019.8 |
| 20260901215030 | 61 | 118 | 0.9 | 3.5 | 0.00 | 0.00 | 0.00 | 77 | 1019.5 |
| 20260901214030 | 61 | 183 | 1.7 | 5.2 | 0.00 | 0.00 | 0.00 | 77 | 1020.0 |